When you browse on this site, cookies collect data to enhance your experience and personalize the content and advertising you see.
Visit our Privacy Policy to learn more. By continuing to use the site, you agree to this use of cookies and data.
  • în România
  • Lista ţărilor
  • Pe 7 zile
  • Temperatura apei
  • Hartă satelitară
  • Meteo pe hartă
  • Widget-uri
  • user-avatar
    Intrare

    Meteo pe oră la Acs

    Astăzi, 19 Iulie, Vineri

    Timp Temperatura Precipitaţii Vânt Presiune Umiditate
    00:00 +19°C° 0.1 mm 1 m/s 750 mmHg 84%
    01:00 +18°C° 0 mm 2 m/s 750 mmHg 84%
    02:00 +18°C° 0.1 mm 1 m/s 750 mmHg 85%
    03:00 +18°C° 0.1 mm 1 m/s 750 mmHg 86%
    04:00 +18°C° 0.1 mm 1 m/s 750 mmHg 86%
    05:00 +19°C° 0 mm 1 m/s 751 mmHg 83%
    06:00 +21°C° 0 mm 1 m/s 751 mmHg 80%
    07:00 +22°C° 0 mm 1 m/s 751 mmHg 74%
    08:00 +24°C° 0.1 mm 1 m/s 751 mmHg 68%
    09:00 +25°C° 0.1 mm 2 m/s 751 mmHg 61%
    10:00 +27°C° 0.1 mm 2 m/s 751 mmHg 54%
    11:00 +28°C° 0 mm 2 m/s 751 mmHg 50%
    12:00 +29°C° 0 mm 2 m/s 751 mmHg 45%
    13:00 +30°C° 0 mm 2 m/s 751 mmHg 40%
    14:00 +30°C° 0 mm 2 m/s 751 mmHg 43%
    15:00 +29°C° 0 mm 3 m/s 750 mmHg 45%
    16:00 +29°C° 0 mm 3 m/s 750 mmHg 48%
    17:00 +27°C° 0 mm 3 m/s 750 mmHg 53%
    18:00 +26°C° 0 mm 3 m/s 750 mmHg 59%
    19:00 +25°C° 0 mm 3 m/s 751 mmHg 64%
    20:00 +23°C° 0.4 mm 2 m/s 751 mmHg 70%
    21:00 +21°C° 0.4 mm 2 m/s 751 mmHg 76%
    22:00 +20°C° 0.4 mm 1 m/s 751 mmHg 82%
    23:00 +20°C° 0.1 mm 1 m/s 751 mmHg 82%

    Mâine, 20 Iulie, Sâmbătă

    Timp Temperatura Precipitaţii Vânt Presiune Umiditate
    00:00 +20°C° 0.1 mm 1 m/s 751 mmHg 83%
    01:00 +20°C° 0.1 mm 1 m/s 752 mmHg 83%
    02:00 +19°C° 0.1 mm 1 m/s 752 mmHg 83%
    03:00 +19°C° 0.1 mm 1 m/s 752 mmHg 84%
    04:00 +19°C° 0.1 mm 1 m/s 752 mmHg 84%
    05:00 +21°C° 0.1 mm 1 m/s 752 mmHg 81%
    06:00 +22°C° 0.1 mm 1 m/s 752 mmHg 77%
    07:00 +23°C° 0.1 mm 1 m/s 752 mmHg 74%
    08:00 +25°C° 0 mm 1 m/s 752 mmHg 68%
    09:00 +27°C° 0 mm 2 m/s 752 mmHg 62%
    10:00 +28°C° 0 mm 3 m/s 752 mmHg 56%
    11:00 +29°C° 0 mm 3 m/s 752 mmHg 53%
    12:00 +30°C° 0 mm 4 m/s 752 mmHg 49%
    13:00 +32°C° 0 mm 4 m/s 752 mmHg 46%
    14:00 +33°C° 0 mm 4 m/s 751 mmHg 46%
    15:00 +33°C° 0 mm 4 m/s 751 mmHg 46%
    16:00 +33°C° 0 mm 4 m/s 751 mmHg 46%
    17:00 +30°C° 0 mm 4 m/s 751 mmHg 52%
    18:00 +29°C° 0 mm 3 m/s 751 mmHg 59%
    19:00 +27°C° 0 mm 3 m/s 751 mmHg 65%
    20:00 +26°C° 0 mm 3 m/s 751 mmHg 67%
    21:00 +25°C° 0 mm 3 m/s 752 mmHg 70%
    22:00 +24°C° 0 mm 3 m/s 752 mmHg 72%
    23:00 +24°C° 0 mm 3 m/s 752 mmHg 73%

    Poimâine, 21 Iulie, Duminică

    Timp Temperatura Precipitaţii Vânt Presiune Umiditate
    00:00 +22°C° 0 mm 3 m/s 752 mmHg 74%
    01:00 +22°C° 0 mm 3 m/s 752 mmHg 75%
    02:00 +21°C° 0 mm 2 m/s 752 mmHg 76%
    03:00 +22°C° 0 mm 1 m/s 752 mmHg 76%
    04:00 +22°C° 0 mm 1 m/s 752 mmHg 77%
    05:00 +23°C° 0 mm 1 m/s 752 mmHg 74%
    06:00 +24°C° 0 mm 1 m/s 752 mmHg 71%
    07:00 +25°C° 0 mm 1 m/s 753 mmHg 69%
    08:00 +27°C° 0 mm 1 m/s 753 mmHg 63%
    09:00 +28°C° 0 mm 1 m/s 753 mmHg 58%
    10:00 +28°C° 0 mm 0 m/s 753 mmHg 53%
    11:00 +31°C° 0 mm 1 m/s 753 mmHg 50%
    12:00 +32°C° 0 mm 2 m/s 753 mmHg 47%
    13:00 +34°C° 0 mm 2 m/s 753 mmHg 44%
    14:00 +33°C° 0 mm 4 m/s 753 mmHg 45%
    15:00 +33°C° 0 mm 5 m/s 754 mmHg 46%
    16:00 +32°C° 0 mm 7 m/s 754 mmHg 48%
    17:00 +29°C° 0.4 mm 5 m/s 754 mmHg 54%
    18:00 +27°C° 0.4 mm 3 m/s 754 mmHg 60%
    19:00 +25°C° 0.4 mm 2 m/s 754 mmHg 67%
    20:00 +24°C° 0 mm 2 m/s 754 mmHg 69%
    21:00 +23°C° 0 mm 2 m/s 755 mmHg 70%
    22:00 +21°C° 0 mm 2 m/s 755 mmHg 72%
    23:00 +21°C° 0 mm 2 m/s 755 mmHg 77%

    22 Iulie, Luni

    Timp Temperatura Precipitaţii Vânt Presiune Umiditate
    00:00 +20°C° 0 mm 2 m/s 755 mmHg 81%
    01:00 +20°C° 0 mm 2 m/s 755 mmHg 85%
    02:00 +19°C° 0 mm 2 m/s 755 mmHg 86%
    03:00 +19°C° 0 mm 2 m/s 755 mmHg 88%
    04:00 +19°C° 0 mm 2 m/s 756 mmHg 89%
    05:00 +20°C° 0 mm 3 m/s 756 mmHg 83%
    06:00 +21°C° 0 mm 3 m/s 756 mmHg 77%
    07:00 +24°C° 0 mm 3 m/s 756 mmHg 71%
    08:00 +25°C° 0 mm 4 m/s 757 mmHg 63%
    09:00 +26°C° 0 mm 5 m/s 757 mmHg 56%
    10:00 +28°C° 0 mm 5 m/s 757 mmHg 48%
    11:00 +28°C° 0 mm 5 m/s 757 mmHg 47%
    12:00 +29°C° 0 mm 5 m/s 756 mmHg 47%
    13:00 +29°C° 0 mm 5 m/s 756 mmHg 46%
    14:00 +29°C° 0 mm 5 m/s 756 mmHg 46%
    15:00 +29°C° 0 mm 5 m/s 756 mmHg 45%
    16:00 +29°C° 0 mm 5 m/s 755 mmHg 45%
    17:00 +28°C° 0 mm 4 m/s 755 mmHg 50%
    18:00 +26°C° 0 mm 3 m/s 755 mmHg 56%
    19:00 +25°C° 0 mm 2 m/s 755 mmHg 61%
    20:00 +24°C° 0 mm 2 m/s 756 mmHg 62%
    21:00 +23°C° 0 mm 2 m/s 756 mmHg 63%
    22:00 +20°C° 0 mm 2 m/s 756 mmHg 65%
    23:00 +20°C° 0 mm 2 m/s 756 mmHg 67%

    23 Iulie, Marţi

    Timp Temperatura Precipitaţii Vânt Presiune Umiditate
    00:00 +19°C° 0 mm 2 m/s 756 mmHg 70%
    01:00 +18°C° 0 mm 2 m/s 756 mmHg 73%
    02:00 +19°C° 0 mm 2 m/s 756 mmHg 72%
    03:00 +19°C° 0 mm 2 m/s 755 mmHg 71%
    04:00 +19°C° 0 mm 2 m/s 755 mmHg 70%
    05:00 +19°C° 0 mm 2 m/s 756 mmHg 68%
    06:00 +20°C° 0 mm 2 m/s 756 mmHg 65%
    07:00 +21°C° 0 mm 3 m/s 756 mmHg 63%
    08:00 +24°C° 0 mm 3 m/s 756 mmHg 57%
    09:00 +25°C° 0 mm 4 m/s 756 mmHg 51%
    10:00 +27°C° 0 mm 4 m/s 756 mmHg 45%
    11:00 +27°C° 0 mm 5 m/s 755 mmHg 45%
    12:00 +28°C° 0 mm 5 m/s 755 mmHg 44%
    13:00 +29°C° 0 mm 5 m/s 755 mmHg 43%
    14:00 +29°C° 0 mm 5 m/s 755 mmHg 44%
    15:00 +29°C° 0 mm 5 m/s 754 mmHg 44%
    16:00 +29°C° 0 mm 5 m/s 754 mmHg 45%
    17:00 +27°C° 0 mm 4 m/s 754 mmHg 51%
    18:00 +26°C° 0 mm 3 m/s 754 mmHg 56%
    19:00 +25°C° 0 mm 3 m/s 754 mmHg 62%
    20:00 +24°C° 0 mm 3 m/s 754 mmHg 63%
    21:00 +22°C° 0 mm 3 m/s 754 mmHg 64%
    22:00 +21°C° 0 mm 3 m/s 754 mmHg 65%
    23:00 +20°C° 0 mm 3 m/s 754 mmHg 67%

    24 Iulie, Miercuri

    Timp Temperatura Precipitaţii Vânt Presiune Umiditate
    00:00 +20°C° 0 mm 2 m/s 754 mmHg 70%
    01:00 +19°C° 0 mm 2 m/s 754 mmHg 72%
    02:00 +18°C° 0 mm 2 m/s 754 mmHg 75%
    03:00 +19°C° 0 mm 1 m/s 754 mmHg 77%
    04:00 +18°C° 0 mm 1 m/s 754 mmHg 80%
    05:00 +20°C° 0 mm 1 m/s 754 mmHg 75%
    06:00 +21°C° 0 mm 1 m/s 754 mmHg 70%
    07:00 +23°C° 0 mm 1 m/s 755 mmHg 66%
    08:00 +24°C° 0 mm 1 m/s 755 mmHg 61%
    09:00 +26°C° 0 mm 1 m/s 755 mmHg 56%
    10:00 +28°C° 0 mm 1 m/s 755 mmHg 51%
    11:00 +29°C° 0 mm 1 m/s 754 mmHg 48%
    12:00 +30°C° 0 mm 1 m/s 754 mmHg 46%
    13:00 +31°C° 0 mm 1 m/s 754 mmHg 43%
    14:00 +32°C° 0 mm 1 m/s 754 mmHg 42%
    15:00 +32°C° 0 mm 1 m/s 753 mmHg 41%
    16:00 +32°C° 0 mm 1 m/s 753 mmHg 41%
    17:00 +31°C° 0 mm 1 m/s 753 mmHg 46%
    18:00 +29°C° 0 mm 1 m/s 753 mmHg 52%
    19:00 +27°C° 0 mm 1 m/s 753 mmHg 58%
    20:00 +26°C° 0 mm 1 m/s 753 mmHg 60%
    21:00 +25°C° 0 mm 1 m/s 753 mmHg 62%
    22:00 +24°C° 0 mm 1 m/s 754 mmHg 64%
    23:00 +23°C° 0 mm 1 m/s 754 mmHg 66%
    Arată mai mult